Location: *
(0.1100°N, 5.5000°E)
Time: 13:32:12
(UTC+00:00)

SEDSat Delta rocket - Pass Details

Date: 07 December 2022
Orbit: 532 x 995 km, 31.4° (Epoch: 02 February)

Event Time Altitude Azimuth Distance (km) Brightness Sun altitude
Rises 18:45:36 0° 304° (NW) 2,715 6.8 -17.5°
Reaches altitude 10° 18:47:54 10° 305° (NW) 1,791 5.8 -18.1°
Maximum altitude 18:51:58 86° 33° (NNE) 532 2.6 -19.0°
Enters shadow 18:53:33 36° 120° (ESE) 852 3.5 -19.3°
